Anderson, SC

1:44 AM EDT on August 21, 2017 (GMT -0400)
Anderson Regional

Weather History for KAND - March, 2014

Change the Weather History Date:

Wednesday, March 5, 2014

  Actual Average Record
Temperature  
Mean Temperature 45 °F -  
Max Temperature 57 °F 62 °F 82 °F (1955)
Min Temperature 33 °F 41 °F 20 °F (1978)
Degree Days  
Heating Degree Days 20    
Moisture  
Dew Point 26 °F    
Average Humidity 53    
Maximum Humidity 79    
Minimum Humidity 33    
Precipitation  
Precipitation 0.00 in - - ()
Sea Level Pressure  
Sea Level Pressure 30.16 in    
Wind  
Wind Speed 3 mph (ESE)    
Max Wind Speed 7 mph    
Max Gust Speed -    
Visibility 10 miles    
Events      
Averages and records for this station are not official NWS values.
T = Trace of Precipitation, MM = Missing Value Source: NWS Daily Summary

Daily Weather History Graph

Daily Weather History Graph

Search for Another Location

Airport or City:

Trip Planner

Search our weather history database for the weather conditions in past years. The results will help you decide how hot, cold, wet, or windy it might be!

Date:

Astronomy

Mar. 05, 2014 Rise Set
Actual Time 6:54 AM EST 6:30 PM EST
Civil Twilight 6:29 AM EST 6:55 PM EST
Nautical Twilight 6:00 AM EST 7:24 PM EST
Astronomical Twilight 5:31 AM EST 7:53 PM EST
Moon 9:32 AM EST (3/5) 11:23 PM EST (3/5)
Length of Visible Light 12h 25m
Length of Day
11h 35m
Waxing Crescent, 23% of the Moon is Illuminated
Mar 5
Waxing Crescent
Mar 8
First Quarter
Mar 16
Full
Mar 23
Last Quarter
Mar 30
New

Hourly Weather History & Observations

Time (EST) Temp. Windchill Dew Point Humidity Pressure Visibility Wind Dir Wind Speed Gust Speed Precip Events Conditions
12:56 AM 37.0 °F 34.5 °F 16.0 °F 42% 30.17 in 10.0 mi Variable 3.5 mph - N/A   Overcast
1:56 AM 37.0 °F 34.5 °F 18.0 °F 46% 30.19 in 10.0 mi SSE 3.5 mph - N/A   Overcast
2:56 AM 37.0 °F - 19.0 °F 48% 30.17 in 10.0 mi Calm Calm - N/A   Overcast
3:56 AM 35.1 °F 31.0 °F 24.1 °F 64% 30.17 in 10.0 mi South 4.6 mph - N/A   Overcast
4:56 AM 34.0 °F 29.8 °F 25.0 °F 70% 30.18 in 10.0 mi South 4.6 mph - N/A   Clear
5:56 AM 34.0 °F - 24.1 °F 67% 30.18 in 10.0 mi Calm Calm - N/A   Clear
6:56 AM 33.1 °F 30.0 °F 24.1 °F 70% 30.18 in 10.0 mi NE 3.5 mph - N/A   Clear
7:56 AM 35.1 °F 32.2 °F 26.1 °F 70% 30.19 in 10.0 mi NNW 3.5 mph - N/A   Clear
8:56 AM 37.9 °F 35.5 °F 24.1 °F 57% 30.19 in 10.0 mi NNW 3.5 mph - N/A   Clear
9:56 AM 39.9 °F 36.7 °F 21.0 °F 47% 30.19 in 10.0 mi NE 4.6 mph - N/A   Clear
10:56 AM 42.1 °F - 21.0 °F 43% 30.19 in 10.0 mi Calm Calm - N/A   Clear
11:56 AM 46.9 °F - 21.9 °F 37% 30.17 in 10.0 mi Variable 4.6 mph - N/A   Clear
12:56 PM 48.9 °F - 24.1 °F 38% 30.14 in 10.0 mi Variable 3.5 mph - N/A   Clear
1:56 PM 50.0 °F - 26.1 °F 39% 30.11 in 10.0 mi Calm Calm - N/A   Clear
2:56 PM 54.0 °F - 27.0 °F 35% 30.08 in 10.0 mi East 3.5 mph - N/A   Clear
3:56 PM 55.9 °F - 28.0 °F 34% 30.08 in 10.0 mi Calm Calm - N/A   Clear
4:56 PM 57.0 °F - 28.0 °F 33% 30.07 in 10.0 mi Variable 3.5 mph - N/A   Clear
5:56 PM 53.1 °F - 30.0 °F 41% 30.09 in 10.0 mi SSE 5.8 mph - N/A   Clear
6:56 PM 50.0 °F - 28.9 °F 44% 30.13 in 10.0 mi ESE 3.5 mph - N/A   Clear
7:56 PM 46.9 °F - 30.9 °F 54% 30.16 in 10.0 mi ESE 4.6 mph - N/A   Clear
8:56 PM 45.0 °F 41.8 °F 33.1 °F 63% 30.17 in 10.0 mi ESE 5.8 mph - N/A   Clear
9:56 PM 42.1 °F 39.2 °F 33.1 °F 70% 30.18 in 10.0 mi East 4.6 mph - N/A   Clear
10:56 PM 42.1 °F 38.4 °F 33.1 °F 70% 30.20 in 10.0 mi ESE 5.8 mph - N/A   Clear
11:56 PM 39.9 °F 35.1 °F 34.0 °F 79% 30.20 in 10.0 mi ENE 6.9 mph - N/A   Clear